{"data":{"norad_id":53176,"intl_designator":"2022-083AW","name":"STARLINK-4294","alt_names":[],"object_type":"PAYLOAD","status":"ACTIVE","operator":null,"country":"US","launch_date":"2022-07-17","launch_site_code":"AFETR","launch_vehicle":null,"mission":null,"orbit_class":"UNKNOWN","rcs_meters":null,"size_class":null,"mass_kg":null,"dimensions":null,"purposes":["comms"],"wikipedia_slug":null,"has_3d_model":false,"image_url":null,"decayed_at":null,"tle_current":{"epoch":"2026-05-25T01:38:22.606944Z","epoch_age_seconds":79537,"freshness":"FRESH","line1":"1 53176U 22083AW  26145.06831721 -.00000911  00000+0 -39153-4 0  9990","line2":"2 53176  53.2127 166.1549 0000973  75.6229 284.4871 15.08841060213098","mean_motion":15.0884106,"eccentricity":9.73e-5,"inclination_deg":53.2127,"raan_deg":166.1549,"arg_perigee_deg":75.6229,"mean_anomaly_deg":284.4871,"bstar":-3.9153e-5,"rev_number":21309,"period_min":95.437487630407,"perigee_km":539.06703952347,"apogee_km":540.41325841666,"semimajor_km":6917.8771489701,"source":"CELESTRAK","updated_at":"2026-05-25T13:38:17.325120Z"}}}